COSMOS 1275 DEB, 13796

Orbit data source: Space-Track

COSMOS 1275 DEB, 13796 is space debris in LEO originally from a launch on Thu, 04 Jun 1981 UTC launched from the Plesetsk Missile And Space Complex (PKMTR). Debris objects in space refer to the collection of defunct objects orbiting the Earth. Examples of debris include non-operational satellites, rocket bodies, and fragments generated from explosions, collisions, or faulty payload assembly.

Loading next visibility...
Identifier
13796, 1981-053GQ
Orbit
LEO
Country
Flag of CISCIS
Related business
Manufacturer
Unknown
Mission
Spacecraft
Bus & Motor
Unknown
Mass
Unknown
Launch date (UTC)
1981-06-04 (45 years ago)
Launch vehicle
Unknown
Launch site
Plesetsk Missile And Space Complex (PKMTR)
Object type
Payload
Rocket body
Debris
Shape & HBR
Unknown shape, 0.1 m
Radar Cross Section
Small (<0.1 m²)

Expand to show TLE details & history
Last TLE update: 12 hours ago

TLE from 12 hours ago
0 COSMOS 1275 DEB
1 13796U 81053GQ  26034.04323866  .00001390  00000-0  11892-2 0  9996
2 13796  83.0211 241.9870 0109542 144.3278   9.0390 13.83593752164260
Epoch: 2026-02-03T01:02Z
TLE epoch observation values (Epoch: 2026-02-03T01:02:15.820Z)
Latitude
26.25717°
Longitude
-90.2524°
Altitude
875.083 km
Speed
7.457 km/s
True Right ascension
03h 54m 10s
True Declination
26° 07' 23"
Sunlit
Object was in daylight at epoch
Visualization orbit readout
Latitude
Unknown
Longitude
Unknown
Altitude
Unknown
Speed
Unknown
Apparent Right ascension
Unknown
Apparent Declination
Unknown
Sunlit
N/A
Visualization observer readout
Local Sidereal Time
15:16:51
Azimuth
Unknown
Elevation
Unknown
Doppler factor
Unknown
Orbital elements
Apogee altitude
1,028.556 km
Perigee altitude
868.046 km
Semi-major axis
7,326.438 km
Eccentricity
0.01095
Inclination
83.0211°
RAAN
241.987°
Arg. of periapsis
144.3278°
True anomaly
9.23891°
Mean anomaly
9.039°
Eccentric anomaly
9.13868°
Mean motion
3.46102 °/min
Orbital period
104.02 mins
BSTAR
0.0011892
Loading maneuver chart data...
Computing Atmospheric mass density...
Loading historical data...
Loading historical data...
Loading historical data...
Loading historical data...
Loading historical data...
Loading historical data...
Loading historical data...

Documentation

Showing up to 5 results
|